This demonstration page uses our WeatherBlox Daily Observations layout. Learn more.

Left ArrowRight Arrow

38.80484, -77.04692

Hourly Observations for September 16, 2020

Temp ( °F °C ) Dew Point ( °F °C ) Humidity (%) Winds ( mph kmh ) Pressure ( in mb ) Visibility ( mi km ) Precip ( " mm )
12:52 am 00:52 Cloudy 61 16.1 50 10 67 67 N N/A 30.27 1025 10 16 N/A
1:52 am 01:52 Cloudy 58 14.4 53 11.7 84 84 E 5 7 30.27 1025 10 16 N/A
2:52 am 02:52 Cloudy 59 15 51 10.6 75 75 E 3 6 30.26 1025 10 16 N/A
3:52 am 03:52 Cloudy 58 14.4 53 11.7 84 84 N 3 6 30.26 1025 10 16 N/A
4:52 am 04:52 Mostly Cloudy 56 13.3 52 11.1 87 87 N 5 7 30.24 1024 10 16 N/A
5:52 am 05:52 Mostly Cloudy 56 13.3 53 11.7 90 90 N 3 6 30.24 1024 10 16 N/A
6:52 am 06:52 Mostly Cloudy 56 13.3 53 11.7 90 90 N N/A 30.24 1024 10 16 N/A
7:52 am 07:52 Mostly Cloudy 57 13.9 53 11.7 87 87 NE 5 7 30.25 1025 10 16 N/A
8:52 am 08:52 Cloudy 61 16.1 54 12.2 78 78 N N/A 30.25 1025 10 16 N/A
9:52 am 09:52 Cloudy 63 17.2 54 12.2 73 73 S 3 6 30.25 1025 10 16 N/A
10:52 am 10:52 Cloudy 66 18.9 57 13.9 73 73 SSW 7 11 30.25 1025 10 16 N/A
11:52 am 11:52 Mostly Cloudy 69 20.6 55 12.8 61 61 S 8 13 30.24 1024 10 16 N/A
12:52 pm 12:52 Mostly Cloudy 70 21.1 56 13.3 61 61 SSE 7 11 30.22 1023 10 16 N/A
1:52 pm 13:52 Mostly Cloudy 71 21.7 56 13.3 59 59 S 10 17 30.19 1023 10 16 N/A
2:52 pm 14:52 Mostly Cloudy 73 22.8 56 13.3 55 55 S 9 15 30.17 1022 10 16 N/A
3:52 pm 15:52 Mostly Cloudy 73 22.8 55 12.8 53 53 S 8 13 30.16 1021 10 16 N/A
4:52 pm 16:52 Mostly Cloudy 73 22.8 56 13.3 55 55 S 9 15 30.15 1021 10 16 N/A
5:52 pm 17:52 Mostly Cloudy 71 21.7 57 13.9 61 61 S 7 11 30.14 1021 10 16 N/A
6:52 pm 18:52 Mostly Cloudy 69 20.6 57 13.9 66 66 SSW 7 11 30.13 1020 10 16 N/A
7:52 pm 19:52 Mostly Cloudy 69 20.6 59 15 70 70 SSE 7 11 30.12 1020 10 16 N/A
8:52 pm 20:52 Mostly Cloudy 68 20 61 16.1 78 78 S 7 11 30.13 1020 10 16 N/A
9:52 pm 21:52 Mostly Cloudy 67 19.4 62 16.7 84 84 SSW 6 9 30.13 1020 10 16 N/A
10:52 pm 22:52 Mostly Cloudy 66 18.9 62 16.7 87 87 WSW 5 7 30.14 1021 10 16 N/A
11:52 pm 23:52 Mostly Cloudy 67 19.4 63 17.2 87 87 S 7 11 30.13 1020 10 16 N/A

Powered by AerisWeather